When you browse on this site, cookies collect data to enhance your experience and personalize the content and advertising you see.
Visit our Privacy Policy to learn more. By continuing to use the site, you agree to this use of cookies and data.
  • In Portugal
  • List of Countries
  • For 7 days
  • Water Temperature
  • Weather Map
  • Weather Widgets
  • user-avatar
    Login

    Hourly Weather Ischgl

    Today, 30 May, Saturday

    Time Temperature Precipitation Wind Pressure Humidity
    00:00 -2°C° 0 mm 1 mps 573 mmHg 90%
    01:00 -2°C° 0 mm 1 mps 573 mmHg 89%
    02:00 -2°C° 0 mm 1 mps 573 mmHg 89%
    03:00 -2°C° 0 mm 1 mps 572 mmHg 89%
    04:00 -2°C° 0 mm 1 mps 572 mmHg 88%
    05:00 -1°C° 0 mm 1 mps 573 mmHg 83%
    06:00 +1°C° 0 mm 1 mps 574 mmHg 77%
    07:00 +3°C° 0 mm 1 mps 575 mmHg 71%
    08:00 +4°C° 0 mm 1 mps 575 mmHg 66%
    09:00 +4°C° 0 mm 2 mps 575 mmHg 61%
    10:00 +5°C° 0 mm 2 mps 575 mmHg 56%
    11:00 +5°C° 0.1 mm 2 mps 575 mmHg 57%
    12:00 +6°C° 0.1 mm 2 mps 575 mmHg 59%
    13:00 +5°C° 0 mm 3 mps 575 mmHg 62%
    14:00 +4°C° 0.3 mm 3 mps 575 mmHg 66%
    15:00 +4°C° 0.3 mm 3 mps 574 mmHg 69%
    16:00 +3°C° 0.3 mm 3 mps 574 mmHg 73%
    17:00 +3°C° 0.2 mm 3 mps 574 mmHg 76%
    18:00 +3°C° 0.2 mm 2 mps 573 mmHg 80%
    19:00 +2°C° 0.2 mm 2 mps 573 mmHg 84%
    20:00 +1°C° 0 mm 2 mps 573 mmHg 88%
    21:00 +1°C° 0 mm 1 mps 573 mmHg 92%
    22:00 0°C° 0 mm 1 mps 572 mmHg 97%
    23:00 0°C° 0 mm 1 mps 572 mmHg 96%

    Tomorrow, 31 May, Sunday

    Time Temperature Precipitation Wind Pressure Humidity
    00:00 -1°C° 0 mm 0 mps 572 mmHg 95%
    01:00 -1°C° 0 mm 0 mps 572 mmHg 94%
    02:00 -2°C° 0 mm 0 mps 572 mmHg 94%
    03:00 -2°C° 0 mm 0 mps 572 mmHg 94%
    04:00 -3°C° 0 mm 0 mps 571 mmHg 94%
    05:00 -2°C° 0 mm 0 mps 572 mmHg 90%
    06:00 0°C° 0 mm 0 mps 573 mmHg 86%
    07:00 +1°C° 0 mm 0 mps 573 mmHg 82%
    08:00 +4°C° 0 mm 1 mps 574 mmHg 74%
    09:00 +5°C° 0 mm 1 mps 575 mmHg 67%
    10:00 +5°C° 0 mm 2 mps 575 mmHg 60%
    11:00 +6°C° 0 mm 2 mps 575 mmHg 57%
    12:00 +7°C° 0 mm 2 mps 576 mmHg 54%
    13:00 +8°C° 0 mm 3 mps 576 mmHg 51%
    14:00 +8°C° 0 mm 3 mps 576 mmHg 53%
    15:00 +8°C° 0 mm 3 mps 576 mmHg 56%
    16:00 +7°C° 0 mm 3 mps 576 mmHg 58%
    17:00 +5°C° 0 mm 3 mps 575 mmHg 64%
    18:00 +6°C° 0 mm 2 mps 575 mmHg 69%
    19:00 +5°C° 0 mm 2 mps 575 mmHg 75%
    20:00 +3°C° 0 mm 2 mps 574 mmHg 81%
    21:00 +2°C° 0 mm 1 mps 574 mmHg 88%
    22:00 0°C° 0 mm 1 mps 573 mmHg 94%
    23:00 0°C° 0 mm 1 mps 573 mmHg 93%

    Day after tomorrow, 1 June, Monday

    Time Temperature Precipitation Wind Pressure Humidity
    00:00 0°C° 0 mm 1 mps 573 mmHg 92%
    01:00 -1°C° 0 mm 1 mps 573 mmHg 92%
    02:00 -1°C° 0 mm 1 mps 573 mmHg 90%
    03:00 -1°C° 0 mm 1 mps 572 mmHg 87%
    04:00 -1°C° 0 mm 1 mps 572 mmHg 85%
    05:00 0°C° 0 mm 0 mps 574 mmHg 76%
    06:00 +3°C° 0 mm 0 mps 575 mmHg 66%
    07:00 +5°C° 0 mm 0 mps 576 mmHg 57%
    08:00 +6°C° 0 mm 0 mps 577 mmHg 52%
    09:00 +9°C° 0 mm 1 mps 577 mmHg 47%
    10:00 +11°C° 0 mm 1 mps 578 mmHg 42%
    11:00 +12°C° 0 mm 1 mps 578 mmHg 40%
    12:00 +13°C° 0 mm 2 mps 579 mmHg 39%
    13:00 +14°C° 0 mm 2 mps 579 mmHg 37%
    14:00 +13°C° 0 mm 2 mps 579 mmHg 39%
    15:00 +12°C° 0 mm 3 mps 579 mmHg 42%
    16:00 +12°C° 0 mm 3 mps 579 mmHg 44%
    17:00 +12°C° 0.1 mm 2 mps 578 mmHg 54%
    18:00 +10°C° 0.1 mm 2 mps 577 mmHg 63%
    19:00 +8°C° 0.1 mm 2 mps 577 mmHg 72%
    20:00 +7°C° 0.1 mm 1 mps 576 mmHg 80%
    21:00 +5°C° 0.1 mm 1 mps 575 mmHg 87%
    22:00 +3°C° 0.1 mm 1 mps 574 mmHg 95%
    23:00 +2°C° 0 mm 0 mps 574 mmHg 95%

    2 June, Tuesday

    Time Temperature Precipitation Wind Pressure Humidity
    00:00 +1°C° 0 mm 0 mps 574 mmHg 95%
    01:00 +1°C° 0 mm 0 mps 573 mmHg 95%
    02:00 +1°C° 0 mm 0 mps 573 mmHg 95%
    03:00 0°C° 0 mm 0 mps 573 mmHg 94%
    04:00 0°C° 0 mm 0 mps 573 mmHg 94%
    05:00 +2°C° 0 mm 0 mps 574 mmHg 88%
    06:00 +5°C° 0 mm 0 mps 575 mmHg 83%
    07:00 +7°C° 0 mm 0 mps 576 mmHg 77%
    08:00 +9°C° 0 mm 1 mps 576 mmHg 66%
    09:00 +11°C° 0 mm 1 mps 577 mmHg 55%
    10:00 +12°C° 0 mm 1 mps 577 mmHg 44%
    11:00 +13°C° 0 mm 2 mps 577 mmHg 42%
    12:00 +13°C° 0 mm 2 mps 577 mmHg 40%
    13:00 +14°C° 0 mm 2 mps 577 mmHg 39%
    14:00 +14°C° 0.4 mm 2 mps 577 mmHg 44%
    15:00 +13°C° 0.4 mm 2 mps 576 mmHg 50%
    16:00 +12°C° 0.4 mm 2 mps 575 mmHg 55%
    17:00 +10°C° 0.8 mm 2 mps 575 mmHg 63%
    18:00 +10°C° 0.8 mm 1 mps 574 mmHg 70%
    19:00 +9°C° 0.8 mm 1 mps 573 mmHg 78%
    20:00 +7°C° 0.3 mm 1 mps 573 mmHg 81%
    21:00 +6°C° 0.3 mm 1 mps 572 mmHg 85%
    22:00 +5°C° 0.3 mm 1 mps 571 mmHg 89%
    23:00 +4°C° 0 mm 1 mps 571 mmHg 89%

    3 June, Wednesday

    Time Temperature Precipitation Wind Pressure Humidity
    00:00 +4°C° 0 mm 1 mps 570 mmHg 89%
    01:00 +4°C° 0 mm 1 mps 570 mmHg 89%
    02:00 +4°C° 0 mm 1 mps 570 mmHg 90%
    03:00 +4°C° 0 mm 1 mps 569 mmHg 90%
    04:00 +4°C° 0 mm 1 mps 569 mmHg 90%
    05:00 +5°C° 0 mm 1 mps 569 mmHg 88%
    06:00 +6°C° 0 mm 1 mps 570 mmHg 85%
    07:00 +6°C° 0 mm 1 mps 570 mmHg 82%
    08:00 +7°C° 0.4 mm 1 mps 571 mmHg 80%
    09:00 +8°C° 0.4 mm 1 mps 571 mmHg 78%
    10:00 +8°C° 0.4 mm 1 mps 571 mmHg 75%
    11:00 +8°C° 0.8 mm 1 mps 571 mmHg 77%
    12:00 +8°C° 0.8 mm 1 mps 571 mmHg 78%
    13:00 +9°C° 0.8 mm 1 mps 571 mmHg 79%
    14:00 +8°C° 0.9 mm 1 mps 571 mmHg 79%
    15:00 +8°C° 0.9 mm 1 mps 570 mmHg 79%
    16:00 +8°C° 0.9 mm 1 mps 570 mmHg 78%
    17:00 +8°C° 0.5 mm 1 mps 570 mmHg 80%
    18:00 +7°C° 0.5 mm 1 mps 570 mmHg 82%
    19:00 +7°C° 0.5 mm 1 mps 570 mmHg 83%
    20:00 +6°C° 0.1 mm 1 mps 569 mmHg 86%
    21:00 +5°C° 0.1 mm 1 mps 569 mmHg 89%
    22:00 +3°C° 0.1 mm 1 mps 569 mmHg 92%
    23:00 +3°C° 0 mm 1 mps 569 mmHg 92%

    4 June, Thursday

    Time Temperature Precipitation Wind Pressure Humidity
    00:00 +3°C° 0 mm 1 mps 569 mmHg 91%
    01:00 +3°C° 0 mm 1 mps 569 mmHg 91%
    02:00 +2°C° 0 mm 1 mps 569 mmHg 91%
    03:00 +2°C° 0 mm 1 mps 568 mmHg 90%
    04:00 +2°C° 0 mm 1 mps 568 mmHg 90%
    05:00 +4°C° 0 mm 1 mps 569 mmHg 84%
    06:00 +4°C° 0 mm 0 mps 570 mmHg 79%
    07:00 +6°C° 0 mm 0 mps 571 mmHg 74%
    08:00 +8°C° 0 mm 0 mps 572 mmHg 68%
    09:00 +10°C° 0 mm 1 mps 573 mmHg 61%
    10:00 +12°C° 0 mm 1 mps 574 mmHg 55%
    11:00 +12°C° 0.3 mm 1 mps 574 mmHg 54%
    12:00 +13°C° 0.3 mm 1 mps 574 mmHg 53%
    13:00 +13°C° 0.3 mm 2 mps 574 mmHg 52%
    14:00 +13°C° 0.9 mm 1 mps 574 mmHg 58%
    15:00 +12°C° 0.9 mm 1 mps 573 mmHg 65%
    16:00 +11°C° 0.9 mm 1 mps 573 mmHg 71%
    17:00 +11°C° 1.2 mm 1 mps 573 mmHg 76%
    18:00 +10°C° 1.2 mm 1 mps 572 mmHg 82%
    19:00 +9°C° 1.2 mm 1 mps 572 mmHg 88%
    20:00 +8°C° 1.2 mm 1 mps 572 mmHg 89%
    21:00 +8°C° 1.2 mm 1 mps 572 mmHg 91%
    22:00 +7°C° 1.2 mm 1 mps 572 mmHg 92%
    23:00 +7°C° 0.3 mm 1 mps 572 mmHg 92%
    Show more